Temperature
24 25 27 27 27 27 26 23 23 24 24 24 24 24 24 24 24 24 24 24 24 24 23 23 23 23 22 22 22 21 21 20 20 19 19 18 18 18 17 17 17 16 16 16
24 25 26 27 27 27 27 26 25 24 24 24 25 24 24 23 23 23 23 23 23 23 23 23 23 22 22 22 21 21 20 20 19 19 19 18 18 17 17 17 16 16 16 16
22 24 25 25 26 26 26 26 25 24 23 23 22 23 23 23 23 23 23 23 23 23 23 23 23 22 22 22 21 21 20 20 19 19 18 18 18 17 17 17 16 16 16 15
20 23 24 23 24 26 26 25 25 24 23 23 23 24 24 25 25 24 24 24 23 23 23 23 23 22 22 21 21 20 20 19 19 18 18 18 18 17 17 16 16 16 15 15
19 21 22 24 25 26 25 24 24 24 23 23 23 23 22 24 25 25 25 24 24 24 23 23 22 22 21 21 20 20 19 19 18 18 18 18 17 17 17 16 16 15 15 15
19 21 22 22 24 26 24 22 23 23 22 23 23 21 21 23 24 24 24 24 23 23 22 22 22 21 21 20 20 19 19 18 18 18 17 17 17 16 16 16 15 15 15 14
19 20 21 22 24 25 23 22 23 23 23 23 22 23 23 24 24 24 23 23 23 22 22 21 21 20 20 20 19 19 19 18 18 17 17 16 16 16 15 15 15 14 14 14
18 20 20 22 23 22 21 23 23 23 23 23 23 23 23 23 23 23 22 22 22 21 21 20 20 20 19 19 19 18 18 18 17 17 16 16 16 15 15 14 14 14 14 13
18 18 20 22 22 23 23 23 23 23 23 23 22 22 22 22 22 22 22 21 21 20 20 19 19 19 19 18 18 18 17 17 17 16 16 15 15 15 14 14 14 13 13 13
17 18 20 21 22 22 23 23 23 23 23 23 22 21 21 21 21 21 20 20 20 20 19 19 18 18 18 18 18 17 17 17 16 16 15 15 15 14 14 14 13 13 13 13
16 17 19 20 21 21 21 22 22 22 22 22 22 21 20 20 20 20 20 19 19 19 19 18 18 18 17 17 17 17 17 16 16 15 15 14 14 14 14 14 14 13 13 13
16 17 17 18 20 21 21 21 21 21 21 21 21 20 20 19 19 19 19 19 19 19 19 18 18 17 17 17 17 17 16 16 15 15 14 14 14 14 13 13 13 13 13 12
18 19 19 19 20 20 20 20 20 20 20 20 19 19 19 19 19 19 19 18 18 18 18 18 17 17 17 16 16 16 16 15 15 14 14 14 14 14 13 13 13 12 12 12
19 19 18 19 19 20 20 20 20 19 19 19 19 19 19 18 18 18 18 18 18 18 18 17 17 17 16 16 16 15 15 15 15 14 14 14 14 13 13 13 13 12 12 12
18 18 18 18 19 19 19 19 19 18 18 18 18 18 18 18 18 18 18 17 17 17 17 17 16 16 16 15 15 15 15 15 14 14 14 13 13 13 13 13 12 12 12 12
18 18 18 18 18 18 18 18 18 17 17 17 17 17 17 17 17 17 17 17 17 16 16 16 16 15 15 15 15 15 14 14 14 13 13 13 13 13 12 12 12 12 12 12
17 17 17 17 17 17 18 18 18 17 17 17 17 17 17 17 16 16 16 16 16 16 15 15 15 15 15 14 14 14 14 13 13 13 13 13 12 12 12 12 12 12 12 11
17 17 17 17 17 17 17 17 17 17 17 17 16 16 16 16 16 15 15 15 15 15 15 15 14 14 14 14 14 14 13 13 13 13 13 12 12 12 12 12 12 12 11 11
17 17 17 17 17 17 17 16 16 16 16 16 16 16 15 15 15 15 15 15 14 14 14 14 14 14 14 14 13 13 13 13 12 12 12 12 12 11 11 11 11 11 11 11
16 16 16 16 16 16 16 16 16 16 16 15 15 15 15 15 14 14 14 14 14 14 14 14 13 13 13 13 13 13 12 12 12 12 12 11 11 11 11 11 11 11 11 10
16 16 16 16 16 16 16 16 15 15 15 15 15 14 14 14 14 14 14 14 14 13 13 13 13 13 13 13 12 12 12 12 12 11 11 11 11 11 11 10 10 10 10 10
15 15 15 15 15 15 15 15 15 15 14 14 14 14 14 14 13 13 13 13 13 13 13 13 13 13 13 12 12 12 12 11 11 11 11 11 11 11 10 10 10 10 10 10
14 14 15 14 14 14 14 14 14 14 14 14 13 13 13 13 13 13 13 13 13 13 13 12 12 12 12 12 12 11 11 11 11 11 11 11 11 10 10 10 10 10 10 10
14 14 14 14 14 14 14 13 13 13 13 13 13 13 13 13 13 12 12 12 12 12 12 12 12 12 12 11 11 11 11 11 11 11 11 10 10 10 10 10 10 10 10 9
13 13 13 13 13 13 13 13 13 13 13 12 12 12 12 12 12 12 12 12 12 12 12 12 12 11 11 11 11 11 11 11 10 10 10 10 10 10 10 10 10 10 10 9
13 13 13 13 12 12 12 12 12 12 12 12 12 12 12 12 12 12 12 12 11 11 11 11 11 11 11 11 11 11 10 10 10 10 10 10 10 10 10 10 10 9 9 9
12 12 12 12 12 12 12 12 12 12 12 12 12 11 11 11 11 11 11 11 11 11 11 11 11 11 11 11 10 10 10 10 10 10 10 10 10 10 10 10 9 9 9 9
Wind_Speed
5 5 2 2 5 3 3 8 9 9 10 11 11 13 13 12 12 11 11 11 10 10 9 8 8 8 7 7 7 8 8 7 6 5 5 5 4 4 4 4 4 4 4 4
2 3 2 3 4 3 3 3 6 6 6 6 8 8 9 11 13 12 12 11 10 10 10 9 9 8 8 7 7 8 8 7 6 6 6 5 5 5 5 4 4 5 5 5
2 4 3 4 5 3 2 2 6 7 8 6 9 11 13 13 13 13 13 11 11 10 10 9 9 8 8 7 7 8 8 7 7 7 6 5 6 5 5 4 5 5 5 5
1 3 4 9 4 3 2 1 2 5 7 11 13 12 10 11 14 13 13 12 12 11 10 8 8 8 8 7 7 8 7 7 7 7 6 6 6 5 5 4 5 5 5 5
3 3 4 6 4 2 2 3 1 5 8 9 10 9 3 4 9 12 12 11 11 10 9 9 9 9 9 8 7 7 7 6 6 7 7 6 6 5 4 5 5 4 4 5
4 4 6 7 6 1 6 2 4 6 10 10 10 7 5 6 6 8 8 8 9 9 9 9 9 9 10 8 7 7 6 6 6 6 6 6 6 5 4 5 5 5 5 4
5 4 6 7 5 3 4 5 4 5 8 8 6 7 8 7 7 8 8 9 9 10 9 9 10 10 10 8 8 7 7 7 6 6 6 6 5 5 5 5 5 5 5 4
4 4 7 5 2 3 6 4 2 5 6 7 7 7 7 7 8 9 9 10 10 10 8 8 10 11 9 8 6 7 7 7 6 5 5 5 5 5 5 6 6 5 4 3
6 6 5 2 2 3 5 5 3 5 6 10 10 8 8 8 8 9 10 10 9 10 8 6 7 9 9 7 7 7 7 6 6 5 4 4 5 5 4 5 4 4 4 3
1 1 1 3 5 5 5 5 4 6 10 12 11 9 9 8 7 8 9 9 9 10 9 6 6 7 8 8 8 8 7 6 5 5 4 4 3 3 4 4 5 5 5 4
1 1 4 5 4 5 6 8 9 7 7 10 13 10 9 7 7 7 8 8 9 9 9 8 7 7 7 8 8 8 7 6 5 5 5 4 3 2 3 3 5 6 5 5
3 4 2 2 1 4 7 7 8 7 7 7 9 10 8 7 6 6 7 7 8 8 8 7 7 7 6 7 8 8 6 5 5 5 4 4 4 3 4 1 2 6 7 7
4 3 2 2 0 4 6 6 7 7 7 9 7 8 8 7 6 6 6 7 7 7 7 7 7 6 5 6 7 7 7 6 5 5 5 4 5 5 3 2 3 2 5 7
0 3 4 3 3 5 7 6 8 8 6 8 8 8 8 7 6 6 6 6 6 7 6 6 6 5 5 6 6 6 6 6 6 5 5 5 5 4 4 5 3 1 1 4
2 2 2 3 5 6 6 7 9 7 6 7 7 8 8 7 6 4 4 5 6 6 5 5 5 4 4 6 6 6 5 4 4 4 4 5 5 4 4 4 4 3 1 1
1 1 2 5 5 5 6 7 7 6 6 6 6 6 6 6 6 5 5 5 6 5 5 5 5 4 5 6 6 5 4 6 6 5 4 4 4 4 4 4 4 4 4 4
2 2 2 3 3 5 5 6 6 6 6 6 5 5 6 6 5 4 3 3 4 4 4 5 4 4 5 5 6 4 4 4 6 4 4 5 5 5 5 5 5 5 5 5
3 3 3 3 3 4 5 5 5 5 5 5 5 5 6 6 5 4 4 4 4 3 2 3 4 5 5 5 4 4 4 4 4 4 4 4 4 4 4 5 5 5 3 3
3 3 3 3 3 5 5 4 4 4 4 5 5 4 3 4 4 4 4 4 4 3 2 3 6 6 5 4 4 4 4 4 4 3 3 4 4 3 3 4 4 5 4 4
3 3 3 3 4 5 4 4 4 4 4 5 4 4 3 3 3 4 4 3 3 3 4 4 5 4 4 4 5 4 4 4 4 3 3 3 4 3 3 3 4 4 4 4
4 4 4 4 3 3 3 4 4 4 3 4 4 4 4 3 3 4 4 2 2 2 4 6 4 4 4 4 4 3 4 4 4 4 4 4 4 3 3 4 4 4 4 4
4 4 5 4 3 3 2 3 4 4 3 3 3 3 3 3 3 2 2 3 3 4 4 3 3 4 5 5 3 3 3 3 3 3 3 4 4 4 4 4 3 3 4 4
3 3 4 3 3 2 3 2 2 3 3 3 3 3 3 3 3 3 2 2 2 4 4 3 4 6 7 4 3 3 3 4 4 4 4 4 4 4 4 4 3 3 3 3
2 3 3 3 3 4 2 1 1 1 2 2 2 3 3 2 1 1 2 4 5 5 3 4 6 7 6 3 3 3 3 3 3 3 3 3 3 3 3 4 3 3 3 4
2 2 3 3 3 2 1 1 2 2 2 1 1 1 1 3 3 2 2 3 5 5 3 4 6 6 4 3 3 3 3 3 3 3 3 3 3 3 3 3 3 3 3 3
2 1 1 2 1 1 1 1 1 1 1 1 1 0 1 1 2 2 2 3 4 4 3 3 3 4 3 3 3 3 2 3 3 3 3 3 3 3 2 3 3 3 3 3
2 2 2 2 1 1 1 1 2 1 1 2 1 1 1 1 2 2 2 2 2 3 2 2 2 3 3 3 2 2 2 3 3 3 3 2 2 2 3 3 3 3 3 4
Wind_Direction
203 224 227 257 278 274 194 183 177 203 193 203 189 180 173 164 155 152 157 160 161 161 159 155 152 157 157 155 155 150 143 143 148 149 145 137 131 122 115 112 111 108 103 89
334 345 4 317 298 292 265 194 168 163 207 207 167 153 153 158 156 156 161 165 166 161 158 157 155 156 155 154 152 145 144 147 144 138 134 129 124 120 115 106 98 97 96 91
275 317 28 285 253 239 268 227 163 178 206 164 142 155 165 166 164 166 169 168 166 165 165 164 159 157 155 154 146 141 145 147 147 143 138 138 133 121 117 114 104 98 97 96
129 56 226 241 243 186 174 267 190 172 165 156 158 165 165 165 167 170 169 169 171 169 169 164 152 141 136 136 136 138 141 145 146 144 143 140 131 130 128 122 118 114 108 106
125 172 263 288 284 191 152 307 308 146 142 142 134 107 99 178 169 169 170 169 171 170 161 150 144 139 132 129 131 132 137 141 145 145 146 144 144 145 139 129 123 119 123 116
136 161 218 250 281 232 104 339 301 146 144 142 126 133 200 199 161 151 150 153 156 150 141 142 144 138 132 135 137 140 140 137 136 137 144 148 149 143 133 130 129 123 111 112
158 190 246 255 285 64 109 230 259 151 147 144 149 173 178 161 147 141 136 132 132 132 137 142 142 139 138 143 152 149 137 131 129 132 137 140 139 139 134 130 125 120 115 109
152 178 245 290 51 139 198 213 164 136 134 124 123 123 129 132 133 131 126 121 123 124 126 133 138 139 142 149 148 134 131 129 127 132 138 135 131 136 135 139 135 133 124 109
182 205 238 293 158 166 147 127 110 123 124 122 116 117 119 121 125 127 124 123 122 122 121 126 137 141 143 148 137 132 130 129 128 126 121 128 139 149 147 150 152 154 152 152
90 277 336 49 67 62 88 108 107 122 127 121 117 122 120 122 124 123 124 127 124 121 122 126 134 136 143 146 142 139 140 136 133 133 127 122 129 145 157 168 170 169 171 175
66 312 30 23 47 71 71 85 89 99 116 128 128 127 128 131 133 134 133 133 133 137 139 146 143 140 145 146 143 140 143 145 144 145 146 134 119 121 160 184 188 178 184 180
223 241 179 252 289 87 85 89 94 98 96 110 124 128 127 130 130 134 138 140 139 140 143 146 146 149 151 152 150 149 149 154 157 156 151 145 137 99 46 97 164 173 175 172
218 229 187 203 79 86 91 97 97 98 117 117 115 120 124 128 130 131 135 139 145 148 148 148 148 152 161 158 155 156 161 166 163 161 162 163 160 156 147 44 57 128 181 178
35 82 70 68 88 84 89 91 91 85 93 106 108 106 109 110 114 123 139 146 145 142 143 146 147 157 166 157 156 159 161 165 165 170 172 173 174 173 170 170 172 223 266 202
18 82 142 123 93 91 93 93 91 91 94 92 101 106 112 118 124 130 128 126 124 128 138 142 145 162 163 154 155 162 163 169 172 173 175 174 173 173 179 182 184 185 183 235
352 40 86 93 99 111 109 110 116 116 110 103 105 110 117 123 121 117 121 132 137 148 156 154 160 170 161 154 154 160 170 168 163 164 167 170 173 175 182 188 189 189 194 196
88 31 59 91 113 128 126 132 140 136 124 121 126 123 113 111 112 116 127 135 142 150 154 158 166 158 153 154 157 162 163 165 157 154 169 178 181 187 191 190 194 197 203 195
151 160 140 133 142 126 118 118 120 123 128 129 123 119 119 125 140 149 144 128 116 113 141 160 151 143 146 152 157 159 160 158 160 165 172 176 181 187 184 189 194 193 197 189
91 79 92 121 132 118 114 116 127 127 120 120 124 130 134 139 146 146 135 133 138 160 206 164 143 141 147 149 147 147 152 155 160 167 174 174 169 172 178 183 189 194 192 184
99 101 107 105 104 109 113 118 121 125 126 127 134 134 140 146 150 150 148 160 185 196 180 154 147 148 152 151 143 149 156 161 168 173 171 170 173 179 184 188 190 194 193 191
93 95 100 96 87 88 105 120 125 132 137 135 142 157 167 170 161 156 157 176 232 175 150 143 146 153 156 154 148 150 157 163 170 175 175 178 183 189 193 196 196 196 193 192
89 97 94 87 79 66 66 99 116 125 131 138 146 144 143 155 158 150 175 192 191 161 147 148 158 161 159 151 150 155 166 172 177 180 182 185 188 194 197 193 193 191 191 192
103 110 111 112 108 92 66 77 106 128 144 156 165 163 168 185 176 165 197 228 175 160 154 165 170 162 155 149 157 174 182 183 187 189 189 189 190 191 191 190 193 192 187 190
106 107 105 102 96 89 77 46 77 101 123 132 160 173 172 163 152 178 171 170 170 165 169 177 172 165 160 163 170 174 179 176 174 183 186 180 186 192 192 189 192 195 192 188
90 89 90 93 92 108 130 100 72 63 77 87 107 130 147 158 169 182 161 160 171 168 177 178 170 167 170 181 181 182 182 174 173 177 171 165 176 185 190 193 195 197 197 191
65 77 93 108 144 180 169 124 101 71 94 91 42 26 113 130 145 153 152 158 165 170 171 167 171 174 180 180 181 182 179 171 172 175 169 169 172 175 183 192 199 197 191 188
59 59 69 55 31 70 110 122 133 158 180 167 164 200 148 130 131 135 134 151 167 168 167 162 161 167 179 186 182 177 170 171 172 170 168 175 183 183 189 192 194 183 183 185
Height
1504 1499 1497 1498 1498 1498 1505 1513 1522 1520 1516 1508 1506 1507 1509 1512 1515 1519 1523 1525 1528 1531 1533 1536 1538 1540 1542 1544 1545 1546 1546 1547 1547 1548 1549 1549 1549 1548 1548 1548 1548 1548 1547 1547
1503 1496 1496 1497 1495 1495 1497 1499 1504 1507 1509 1500 1501 1505 1508 1511 1514 1517 1520 1523 1526 1528 1530 1533 1536 1539 1541 1542 1543 1544 1545 1546 1547 1547 1547 1548 1548 1548 1548 1548 1547 1547 1547 1547
1514 1502 1499 1508 1497 1495 1496 1495 1498 1506 1503 1498 1501 1503 1506 1508 1511 1513 1517 1520 1524 1526 1528 1530 1534 1536 1538 1540 1541 1543 1544 1545 1545 1546 1547 1547 1547 1548 1547 1547 1547 1547 1547 1547
1515 1510 1522 1507 1488 1488 1491 1491 1490 1491 1493 1493 1495 1499 1502 1504 1506 1510 1513 1517 1521 1523 1526 1529 1532 1534 1537 1539 1540 1541 1542 1543 1544 1545 1545 1546 1547 1547 1547 1547 1547 1547 1547 1546
1520 1521 1514 1498 1487 1486 1491 1495 1489 1489 1491 1493 1495 1500 1505 1505 1505 1507 1510 1514 1518 1521 1524 1527 1530 1532 1534 1536 1538 1539 1540 1541 1542 1543 1544 1545 1546 1546 1546 1546 1546 1546 1546 1546
1516 1518 1521 1502 1484 1481 1486 1500 1489 1488 1490 1492 1495 1505 1507 1504 1505 1508 1510 1513 1516 1520 1523 1525 1528 1530 1532 1534 1535 1536 1538 1540 1541 1542 1543 1544 1544 1545 1545 1545 1545 1545 1545 1546
1512 1514 1507 1489 1482 1481 1502 1503 1489 1489 1489 1490 1492 1496 1499 1502 1504 1507 1509 1512 1515 1518 1520 1523 1526 1528 1530 1531 1532 1534 1536 1537 1539 1541 1542 1543 1543 1543 1544 1544 1544 1544 1544 1545
1511 1514 1509 1484 1482 1488 1492 1486 1487 1488 1489 1490 1491 1494 1498 1500 1503 1506 1509 1511 1514 1517 1520 1522 1524 1526 1527 1529 1531 1533 1535 1536 1538 1539 1540 1541 1541 1542 1542 1542 1542 1543 1543 1544
1500 1501 1489 1484 1483 1484 1483 1484 1485 1486 1488 1489 1492 1496 1498 1500 1503 1506 1508 1511 1513 1516 1519 1521 1523 1525 1526 1528 1530 1532 1534 1535 1536 1537 1538 1539 1540 1540 1540 1541 1541 1541 1542 1542
1494 1490 1486 1485 1483 1483 1483 1483 1485 1486 1487 1489 1492 1496 1499 1502 1505 1506 1508 1510 1513 1515 1517 1520 1522 1524 1525 1527 1529 1530 1532 1532 1534 1535 1536 1537 1538 1538 1539 1539 1539 1540 1540 1540
1494 1490 1487 1486 1486 1486 1486 1485 1485 1487 1489 1490 1492 1495 1499 1502 1505 1507 1508 1510 1512 1514 1516 1518 1520 1522 1524 1526 1527 1528 1529 1530 1531 1533 1534 1535 1536 1536 1537 1538 1538 1539 1539 1539
1496 1491 1491 1490 1488 1488 1487 1487 1488 1489 1490 1492 1493 1494 1498 1501 1503 1506 1508 1510 1512 1513 1515 1517 1519 1520 1522 1524 1525 1526 1527 1528 1529 1530 1532 1533 1534 1534 1535 1536 1536 1537 1538 1538
1490 1489 1489 1488 1489 1488 1488 1489 1490 1491 1491 1492 1495 1496 1498 1500 1503 1506 1508 1510 1511 1512 1514 1515 1517 1518 1520 1522 1523 1524 1525 1526 1527 1528 1529 1530 1532 1533 1533 1534 1535 1535 1536 1536
1489 1488 1488 1488 1488 1488 1489 1489 1489 1491 1493 1493 1494 1497 1499 1501 1504 1506 1507 1509 1510 1511 1513 1514 1515 1517 1518 1520 1521 1522 1523 1524 1525 1526 1527 1528 1529 1530 1531 1532 1532 1533 1534 1535
1488 1488 1489 1488 1488 1489 1490 1490 1491 1493 1494 1494 1496 1497 1500 1502 1504 1505 1507 1508 1509 1510 1512 1513 1514 1515 1516 1518 1519 1520 1521 1522 1523 1524 1525 1525 1526 1527 1529 1529 1530 1531 1531 1532
1488 1489 1489 1488 1489 1490 1491 1492 1494 1495 1495 1496 1498 1499 1501 1502 1503 1505 1506 1507 1508 1509 1510 1511 1512 1513 1515 1516 1517 1518 1519 1520 1521 1521 1522 1523 1523 1525 1526 1527 1528 1528 1529 1530
1489 1488 1488 1488 1490 1490 1491 1492 1493 1495 1495 1497 1499 1500 1501 1502 1503 1504 1505 1507 1508 1509 1509 1510 1510 1511 1513 1514 1515 1515 1516 1517 1518 1519 1519 1520 1521 1521 1522 1523 1524 1525 1526 1527
1488 1488 1488 1489 1490 1490 1491 1492 1493 1494 1495 1496 1498 1499 1499 1501 1502 1503 1504 1505 1506 1507 1508 1508 1509 1510 1511 1512 1513 1513 1514 1515 1516 1516 1517 1518 1519 1519 1520 1521 1521 1522 1523 1524
1487 1487 1488 1490 1490 1490 1491 1492 1493 1494 1494 1495 1497 1498 1499 1499 1500 1502 1503 1504 1504 1505 1506 1507 1507 1508 1509 1510 1511 1512 1512 1513 1514 1514 1515 1516 1516 1517 1517 1518 1519 1519 1520 1522
1486 1488 1489 1489 1490 1490 1490 1491 1492 1493 1494 1495 1496 1497 1498 1499 1500 1501 1501 1502 1503 1504 1504 1505 1505 1506 1507 1508 1509 1509 1510 1511 1512 1512 1513 1513 1513 1514 1515 1516 1516 1517 1518 1519
1486 1487 1487 1488 1489 1489 1490 1491 1491 1492 1493 1495 1496 1496 1497 1498 1498 1499 1499 1499 1501 1502 1502 1503 1503 1504 1505 1506 1507 1507 1508 1509 1509 1510 1510 1511 1511 1512 1512 1513 1514 1514 1515 1516
1485 1486 1487 1487 1488 1488 1489 1490 1491 1491 1493 1494 1495 1495 1496 1496 1496 1497 1497 1498 1499 1500 1500 1501 1501 1502 1503 1504 1505 1505 1506 1506 1507 1507 1508 1508 1509 1510 1510 1511 1511 1512 1513 1513
1485 1485 1486 1486 1487 1488 1488 1489 1490 1490 1491 1491 1492 1492 1493 1493 1494 1494 1495 1496 1497 1498 1498 1499 1500 1501 1501 1502 1502 1503 1504 1504 1505 1505 1506 1506 1507 1507 1508 1509 1509 1510 1510 1510
1485 1485 1485 1485 1486 1486 1487 1488 1488 1488 1489 1489 1489 1490 1490 1491 1492 1492 1493 1494 1495 1495 1496 1497 1498 1499 1499 1500 1501 1501 1502 1503 1503 1504 1504 1505 1505 1506 1506 1507 1507 1508 1508 1508
1484 1484 1484 1485 1485 1485 1486 1486 1487 1487 1487 1487 1487 1488 1488 1489 1490 1491 1492 1492 1493 1494 1495 1496 1496 1497 1498 1499 1499 1500 1501 1501 1502 1503 1503 1504 1504 1505 1505 1505 1506 1506 1506 1506
1483 1483 1483 1484 1484 1485 1485 1485 1485 1485 1485 1486 1486 1486 1487 1488 1488 1489 1490 1491 1492 1492 1493 1494 1495 1496 1497 1497 1498 1499 1500 1500 1501 1502 1502 1502 1503 1503 1503 1503 1504 1504 1504 1504
1483 1483 1483 1484 1484 1484 1484 1484 1484 1484 1484 1484 1484 1485 1485 1486 1487 1487 1488 1489 1490 1491 1492 1492 1493 1494 1495 1496 1497 1498 1498 1499 1500 1501 1501 1501 1501 1501 1502 1501 1501 1501 1501 1501